Regional Weather Roundup
Issued by NWS Charleston, WV

Home | Current Version | Previous Version | Graphics & Text | Print | Product List | Glossary On
Versions: 1 2 3 4 5 6 7 8 9 10 11 12 13 14 15 16 17 18 19 20 21 22 23 24 25 26 27 28 29 30 31 32 33 34 35 36 37 38 39 40 41 42 43 44 45 46 47 48 49 50
000
ASUS41 KRLX 291110
RWRRLX
West Virginia Regional Weather Roundup
National Weather Service Charleston WV
700 AM EDT SUN MAR 29 2015

Note: "fair" indicates few or no clouds below 12,000 feet with no
significant weather and/or obstructions to visibility.

WVZ003-291200-
Northern Panhandle of West Virginia

CITY           SKY/WX    TMP DP  RH WIND       PRES   REMARKS
WHEELING       CLEAR     16   9  74 S6        30.33R WCI   7
$$

WVZ009-291200-
Northwest West Virginia

CITY           SKY/WX    TMP DP  RH WIND       PRES   REMARKS
PARKERSBURG    CLEAR     14   9  80 SE3       30.40R
$$

WVZ006-291200-
Western West Virginia

CITY           SKY/WX    TMP DP  RH WIND       PRES   REMARKS
HUNTINGTON     CLEAR     18  14  84 CALM      30.38R
$$

WVZ015-291200-
West Central West Virginia

CITY           SKY/WX    TMP DP  RH WIND       PRES   REMARKS
CHARLESTON     CLEAR     18  15  88 CALM      30.38R
$$

WVZ022-031-291200-
North Central West Virginia

CITY           SKY/WX    TMP DP  RH WIND       PRES   REMARKS
CLARKSBURG       N/A     15  10  80 CALM      30.35R
MORGANTOWN     CLEAR     15   7  70 S5        30.35R WCI   8
$$

WVZ025-035-042-045-291200-
Southern West Virginia

CITY           SKY/WX    TMP DP  RH WIND       PRES   REMARKS
BECKLEY        CLEAR     14   7  73 CALM      30.28R
LOGAN            N/A     21  10  63 CALM      30.31R
BLUEFIELD      CLEAR     18   6  59 W3        30.26R
LEWISBURG      CLEAR     19   9  67 CALM      30.29R
$$

WVZ047-291200-
Northern Mountains of West Virginia

CITY           SKY/WX    TMP DP  RH WIND       PRES   REMARKS
ELKINS         CLEAR      8   4  83 CALM      30.31R
$$

WVZ052-291200-
Eastern Panhandle of West Virginia

CITY           SKY/WX    TMP DP  RH WIND       PRES   REMARKS
MARTINSBURG    CLEAR     22   6  50 NW5       30.35R
PETERSBURG     CLEAR     17   8  66 CALM      30.36R
$$


USA.gov is the U.S. government's official web portal to all federal, state and local government web resources and services.